Location: Inglewood
(33.9617°N, 118.3531°W)
Time: 06:36:54
(UTC+00:00)

Daily predictions for brighter satellites

Satellite Brightness Start Highest point End
(mag) Time Altitude Azimuth Time Altitude Azimuth Time Altitude Azimuth
OE (NEXTSAT) 4.2 12:02:55 11° SW 12:05:59 82° SE 12:09:15 10° ENE
Cosmos 1513 Rocket 4.4 12:02:40 10° N 12:08:42 71° W 12:14:44 10° S
Meteor 1-19 Rocket 4.5 12:03:22 10° NNW 12:09:15 59° W 12:15:08 10° S
Envisat 3.7 12:05:59 10° NNE 12:10:59 58° E 12:15:58 10° S
ALOS 3.5 12:08:23 10° NNW 12:12:14 26° WNW 12:16:05 10° SW
Cosmos 1633 Rocket 3.9 12:09:10 10° S 12:13:23 52° E 12:17:36 10° NNE
H-2A R/B 4.2 12:10:09 10° NNE 12:13:36 37° E 12:17:05 10° SSE
Cosmos 1378 3.0 12:13:16 10° N 12:16:57 75° W 12:20:36 10° S
Meteor 1-5 Rocket 4.1 12:13:56 10° SSW 12:19:17 67° W 12:24:34 10° N
Cosmos 1356 3.5 12:16:34 10° N 12:19:50 74° E 12:23:04 10° SSE
Cosmos 371 Rocket 3.3 12:16:45 10° NNW 12:21:34 78° WSW 12:26:21 10° S
